Overview Statistics Trail Chart Weather Telemetry Raw packets
 

This is the latest recevied weather packets stored in our database for station/object SV9TNF-52. If no packets are shown the sender has not sent any weather packets the latest 10 day(s).

<< 27 28 29 30 31 32 33 >>
Time Temp. Humidity Pressure Rain* Wind** Luminosity Snow
1788471265 23.33° C 76% 1018.3 hPa 0 mm 6.71 m/s, 214° - -
1788470964 23.33° C 76% 1018.3 hPa 0 mm 5.81 m/s, 221° - -
1788470664 23.33° C 76% 1018.3 hPa 0 mm 4.92 m/s, 199° - -
1788470364 23.33° C 76% 1018.3 hPa 0 mm 5.81 m/s, 219° - -
1788470065 23.33° C 75% 1018.3 hPa 0 mm 4.02 m/s, 173° - -
1788469764 23.33° C 75% 1018.3 hPa 0 mm 7.15 m/s, 253° - -
1788469464 23.33° C 75% 1018.3 hPa 0 mm 5.81 m/s, 164° - -
1788469164 23.33° C 75% 1018.3 hPa 0 mm 4.92 m/s, 204° - -
1788468864 23.33° C 75% 1018.3 hPa 0 mm 4.02 m/s, 208° - -
1788468564 23.33° C 75% 1018.3 hPa 0 mm 5.81 m/s, 254° - -
1788468264 23.33° C 74% 1018.3 hPa 0 mm 4.92 m/s, 157° - -
1788467963 23.33° C 74% 1018.3 hPa 0 mm 4.47 m/s, 185° - -
1788467663 23.33° C 74% 1018 hPa 0 mm 5.81 m/s, 176° - -
1788467363 23.33° C 74% 1018 hPa 0 mm 3.13 m/s, 191° - -
1788467074 23.33° C 74% 1018.3 hPa 0 mm 6.26 m/s, 195° - -
1788466763 23.33° C 74% 1018.3 hPa 0 mm 6.26 m/s, 135° - -
1788466463 23.33° C 74% 1018.3 hPa 0 mm 7.15 m/s, 186° - -
1788466163 23.33° C 73% 1018.3 hPa 0 mm 6.26 m/s, 220° - -
1788465862 23.33° C 73% 1018.3 hPa 0 mm 5.36 m/s, 210° - -
1788465562 23.33° C 73% 1018.3 hPa 0 mm 6.71 m/s, 226° - -
1788465263 23.89° C 73% 1018.3 hPa 0 mm 4.02 m/s, 248° - -
1788464962 23.89° C 73% 1018.3 hPa 0 mm 4.47 m/s, 174° - -
1788464662 23.33° C 73% 1018.3 hPa 0 mm 5.36 m/s, 165° - -
1788464362 23.33° C 73% 1018.3 hPa 0 mm 6.71 m/s, 232° - -
1788464062 23.89° C 73% 1018.3 hPa 0 mm 4.92 m/s, 210° - -

* Rain latest hour (hover to see other rain measurements)
** Current wind speed in m/s (hover to see current wind gust speed)